Location: Armidale
(30.5016°S, 151.6662°E)
Time: 02:43:44
(UTC+10:00)

Hubble Space Telescope - Pass Details

Date: 08 August 2020
Orbit: 536 x 540 km, 28.5° (Epoch: 28 September)

Event Time Altitude Azimuth Distance (km) Brightness Sun altitude
Rises 18:35:28 0° 279° (W) 2,681 6.2 -15.7°
Reaches altitude 10° 18:37:44 10° 282° (WNW) 1,790 4.8 -16.2°
Maximum altitude 18:41:50 65° 3° (N) 591 0.9 -17.1°
Enters shadow 18:43:25 35° 73° (ENE) 876 1.3 -17.4°
